sat.trackr.live / text

‹ back to catalog

AMOS-4

NORAD 39237 · 2013-045A

PAYLOAD ACTIVE UNKNOWN

§ Identity

Operator
Country
ISRA
Launch date
2013-08-31
Launch site
TYMSC
Launch vehicle
Mass (kg)
RCS (m²)
7.94

Purposes: comms

External: N2YO · Heavens-Above · Gunter

§ Orbital elements

Epoch: 2026-09-20T01:50:00.331872Z

Period
1,436.10 min
Inclination
0.0290°
Eccentricity
0.0001199
Mean motion
1.00271338 rev/d
Perigee alt
35,781.7 km
Apogee alt
35,791.8 km
Semi-major
42,164.9 km
B*
0.0000e+0
RAAN
234.9382°
Arg perigee
293.0368°
Mean anomaly
283.5211°
Rev number
4,790

§ Raw data

AMOS-41 39237U 13045A   26263.07639273  .00000003  00000+0  00000+0 0  99942 39237   0.0290 234.9382 0001199 293.0368 283.5211  1.00271338 47906

JSON: /api/v1/satellites/39237 · /tle

For live sub-satellite position, see the globe view (requires WebGL).

§ Visibility from observer

Set your observer location to see the next 7 days of passes ≥ 10°. The values pass through the URL so the page stays shareable.

No JS? Fill the form by hand. The geolocation button needs JavaScript.